Folgende Datensätze stehen als ungeprüfte Rohdaten zur Verfügung

ZeitFeinstaubµg/m³
Grafik anzeigen
Lufttemperatur°C
Grafik anzeigen
rel. Luftfeuchte%
Grafik anzeigen
Windrichtung°Windgeschwindigkeitm/s
Grafik anzeigen
Stickstoffdioxidµg/m³
Grafik anzeigen
26.01.2020 18:00:0056,00-1,3793,23198,180,3927,65
26.01.2020 17:30:0060,87-1,3693,35196,200,3927,87
26.01.2020 17:00:0074,00-1,3993,30178,760,6127,16
26.01.2020 16:30:0068,02-1,1392,52216,480,5626,55
26.01.2020 16:00:0052,00-1,3793,46190,140,5425,71
26.01.2020 15:30:0047,40-1,3892,84193,860,5726,13
26.01.2020 15:00:0035,00-1,5193,16183,170,5725,11
26.01.2020 14:30:0041,54-1,5793,08275,470,5424,18
26.01.2020 14:00:0059,00-1,6193,54187,030,5223,69
26.01.2020 13:30:0051,92-1,5893,45161,030,6224,99
26.01.2020 13:00:0033,00-1,5093,02181,350,5325,68
26.01.2020 12:30:0038,36-1,7094,35211,910,4824,58
26.01.2020 12:00:0053,00-2,1095,12239,470,4523,22
26.01.2020 11:30:0049,17-2,2395,75343,750,2822,65
26.01.2020 11:00:0038,00-2,4096,34173,810,4823,78
26.01.2020 10:30:0036,65-2,5496,39161,050,4823,63
26.01.2020 10:00:0033,00-2,6696,7316,820,0823,13
26.01.2020 09:30:0031,10-2,9296,51175,470,4224,14
26.01.2020 09:00:0026,00-2,8696,70178,510,2725,81
26.01.2020 08:30:0027,62-2,9196,54162,550,4127,01
26.01.2020 08:00:0032,00-2,9297,12259,790,3727,68
26.01.2020 07:30:0033,35-3,0197,04165,800,2527,41
26.01.2020 07:00:0037,00-2,8697,49198,450,4726,19
26.01.2020 06:30:0037,27-2,7997,16166,420,9625,87
26.01.2020 06:00:0038,00-2,6797,15179,810,6325,45
26.01.2020 05:30:0038,27-2,6196,88174,210,6125,14
26.01.2020 05:00:0039,00-2,2896,70183,680,6825,60
26.01.2020 04:30:0038,73-2,2797,09245,010,3626,13
26.01.2020 04:00:0038,00-2,3097,10217,680,5026,27
26.01.2020 03:30:0040,17-2,1296,81191,930,3825,42
26.01.2020 03:00:0046,00-2,0796,72296,510,4825,71
26.01.2020 02:30:0047,08-1,9996,96252,480,3925,49
26.01.2020 02:00:0050,00-2,0796,68178,800,6925,75
26.01.2020 01:30:0053,79-1,9495,80169,170,4926,99
26.01.2020 01:00:0064,00-1,7595,39254,460,3626,12
26.01.2020 00:30:0062,64-1,5194,56195,260,5226,39
26.01.2020 00:00:0059,00-1,4695,17191,440,3526,82
25.01.2020 23:30:0058,46-1,3894,49165,320,7827,39
25.01.2020 23:00:0057,00-1,2493,72156,310,6227,43
25.01.2020 22:30:0055,65-1,0093,02159,470,7727,93
25.01.2020 22:00:0052,00-0,8492,04166,910,6429,18
25.01.2020 21:30:0054,44-0,7792,08176,120,6329,59
25.01.2020 21:00:0061,00-0,7892,32155,710,4428,26
25.01.2020 20:30:0059,10-0,6492,05169,750,5729,28
25.01.2020 20:00:0054,00-0,6391,95166,920,7629,45
25.01.2020 19:30:0056,71-0,3489,31182,470,5029,90
25.01.2020 19:00:0064,00-0,2889,34261,580,3630,77
25.01.2020 18:30:0063,74-0,5790,63193,630,3233,12
25.01.2020 18:00:0063,00-0,6289,76171,850,9835,43
25.01.2020 17:30:0062,46-0,5388,16160,750,8937,46
25.01.2020 17:00:0061,00-0,3886,82167,620,7636,92
25.01.2020 16:30:0060,46-0,1585,04174,170,7237,51
25.01.2020 16:00:0059,000,1682,97169,520,8838,11
25.01.2020 15:30:0077,550,4980,87172,280,6638,43
25.01.2020 15:00:00128,000,7880,51245,970,4335,43
25.01.2020 14:30:00107,710,1682,58201,270,2333,55
25.01.2020 14:00:0053,00-0,0183,60211,720,6031,02
25.01.2020 13:30:0051,65-0,2184,21175,621,0928,48
25.01.2020 13:00:0048,00-0,2283,62173,201,3029,13
25.01.2020 12:30:0053,68-0,1982,60168,370,7030,50
25.01.2020 12:00:0069,00-0,3884,87210,450,6130,40
25.01.2020 11:30:0085,17-1,1987,96214,480,6432,54
25.01.2020 11:00:00129,00-1,6389,05223,020,5433,43
25.01.2020 10:30:00108,73-2,5391,92253,930,7333,45
25.01.2020 10:00:0054,00-3,0493,30170,080,6535,09
25.01.2020 09:30:0048,59-3,2893,37178,190,7137,15
25.01.2020 09:00:0034,00-3,4592,80270,780,4934,26
25.01.2020 08:30:0033,46-3,6993,44271,540,4033,21
25.01.2020 08:00:0032,00-4,0394,11220,970,1534,01
25.01.2020 07:30:0034,71-4,3194,59172,800,1435,67
25.01.2020 07:00:0042,00-4,3394,93182,940,1437,75
25.01.2020 06:30:0042,54-4,3695,49177,520,5537,54
25.01.2020 06:00:0044,00-4,1895,01168,830,6740,36
25.01.2020 05:30:0044,54-3,9094,30185,540,4442,36
25.01.2020 05:00:0046,00-3,7494,26186,050,5339,85
25.01.2020 04:30:0045,23-3,6794,06204,460,1940,08
25.01.2020 04:00:0043,00-3,8294,69211,600,3439,20
25.01.2020 03:30:0043,27-3,8694,54188,090,4239,29
25.01.2020 03:00:0044,00-3,6093,52180,350,6539,22
25.01.2020 02:30:0045,08-3,6593,96197,330,2741,13
25.01.2020 02:00:0048,00-3,5394,34179,370,4842,14
25.01.2020 01:30:0048,54-3,3094,86244,810,1743,00
25.01.2020 01:00:0050,00-3,4095,09187,780,2443,36
25.01.2020 00:30:0048,09-3,3194,30185,790,6642,25
25.01.2020 00:00:0043,00-3,2694,13203,370,4742,23
24.01.2020 23:30:0042,73-3,2594,22234,760,3841,92
24.01.2020 23:00:0042,00-3,5795,17194,660,2341,67
24.01.2020 22:30:0042,54-3,6695,26166,460,7241,07
24.01.2020 22:00:0044,00-3,5295,38166,711,0141,51
24.01.2020 21:30:0043,19-3,4295,43169,520,9842,56
24.01.2020 21:00:0041,00-3,4195,53169,400,8843,07
24.01.2020 20:30:0045,86-3,4595,37172,890,3843,95
24.01.2020 20:00:0059,00-3,4994,91157,260,4343,10
24.01.2020 19:30:0058,19-3,2094,55224,940,7043,41
24.01.2020 19:00:0056,00-3,0594,86236,350,7144,10
24.01.2020 18:30:0052,51-2,8293,72182,550,9042,68
24.01.2020 18:00:0043,00-2,5393,14218,010,5044,31
24.01.2020 17:30:0042,73-2,5192,92239,960,6643,07
24.01.2020 17:00:0042,00-2,4292,87246,440,8137,27
24.01.2020 16:30:0046,36-2,3692,41252,950,7834,67
24.01.2020 16:00:0059,00-2,3291,88263,740,9131,18
24.01.2020 15:30:0055,49-2,2291,61230,560,6529,27
24.01.2020 15:00:0046,00-2,2191,77191,550,6932,13
24.01.2020 14:30:0048,14-2,2791,67221,340,6233,92
24.01.2020 14:00:0054,00-2,2991,50171,300,7533,61
24.01.2020 13:30:0055,87-2,2192,56209,270,5634,18
24.01.2020 13:00:0061,00-2,5693,93191,560,4834,79
24.01.2020 12:30:0055,32-2,7794,53252,320,5140,65
24.01.2020 12:00:0040,00-3,0494,52227,340,6236,95
24.01.2020 11:30:0041,34-3,3294,56266,340,4337,16
24.01.2020 11:00:0045,00-3,5694,07273,020,3737,10
24.01.2020 10:30:0042,84-3,6294,47254,800,1938,44
24.01.2020 10:00:0037,00-3,8494,243,790,3239,73
24.01.2020 09:30:0036,19-4,1494,97189,010,2138,39
24.01.2020 09:00:0034,00-4,3294,72160,660,3238,92
24.01.2020 08:30:0034,27-4,3894,96191,950,3437,72
24.01.2020 08:00:0035,00-4,4494,85174,060,2136,41
24.01.2020 07:30:0037,16-4,4494,66151,960,1536,24
24.01.2020 07:00:0043,00-4,2594,04309,550,1236,14
24.01.2020 06:30:0043,00-4,2394,21258,500,6436,47
24.01.2020 06:00:0043,00-4,4595,28284,270,2835,51
24.01.2020 05:30:0042,20-4,6894,52289,450,6236,72
24.01.2020 05:00:0040,00-4,8594,45276,070,2436,82
24.01.2020 04:30:0040,00-4,9593,66164,400,1934,09
24.01.2020 04:00:0040,00-4,7891,40187,960,1732,72
24.01.2020 03:30:0040,27-4,4690,31236,920,2431,66
24.01.2020 03:00:0041,00-4,6691,89283,250,1330,42
24.01.2020 02:30:0039,37-4,5392,17341,980,0732,28
24.01.2020 02:00:0035,00-4,3792,62225,760,0432,45
24.01.2020 01:30:0035,27-4,1591,84154,360,0734,18
24.01.2020 01:00:0036,00-3,8592,21161,690,1435,62
24.01.2020 00:30:0034,91-3,3789,85254,160,0936,49
24.01.2020 00:00:0032,00-2,9788,91230,770,1037,23
23.01.2020 23:30:0033,86-2,5588,39302,960,3240,99
23.01.2020 23:00:0039,00-2,1888,66335,700,6340,57
23.01.2020 22:30:0039,27-2,0988,77346,350,7744,56
23.01.2020 22:00:0040,00-2,0688,11297,760,5847,90
23.01.2020 21:30:0042,12-1,6087,04347,870,8544,70
23.01.2020 21:00:0048,00-1,5086,46313,240,5449,89
23.01.2020 20:30:0050,13-1,3086,18329,500,6251,34
23.01.2020 20:00:0056,00-1,0585,89324,340,5755,53
23.01.2020 19:30:0057,88-0,9085,09329,930,4058,36
23.01.2020 19:00:0063,00-0,5584,45313,400,4863,48
23.01.2020 18:30:0055,680,2480,82292,340,1260,10
23.01.2020 18:00:0036,000,6279,78300,930,1557,25
23.01.2020 17:30:0034,641,3476,97318,960,3755,66
23.01.2020 17:00:0031,001,8974,00162,600,1336,88
23.01.2020 16:30:0031,002,7371,92150,580,6034,59
23.01.2020 16:00:0031,003,3969,56162,150,9732,66
23.01.2020 15:30:0030,463,4769,70172,090,7330,28
23.01.2020 15:00:0029,003,3668,88161,991,0528,92
23.01.2020 14:30:0039,004,3765,85169,170,9027,09
23.01.2020 14:00:0069,003,8367,97170,140,9930,51
23.01.2020 13:30:0070,514,0668,66175,590,9546,32
23.01.2020 13:00:0075,002,8874,77216,970,2960,45
23.01.2020 12:30:0074,251,4079,39217,740,2558,81
23.01.2020 12:00:0072,000,4981,75186,440,1758,70
23.01.2020 11:30:0072,00-0,0784,81250,880,4754,80
23.01.2020 11:00:0072,00-0,9387,26239,850,2254,19
23.01.2020 10:30:0068,22-1,7589,37165,960,2950,59
23.01.2020 10:00:0057,00-1,9090,22236,540,3144,67
23.01.2020 09:30:0056,19-2,4290,41233,650,2039,30
23.01.2020 09:00:0054,00-2,7590,81256,190,1637,84
23.01.2020 08:30:0053,46-3,1191,11252,910,2340,18
23.01.2020 08:00:0052,00-3,4692,04260,330,3940,02
23.01.2020 07:30:0051,20-3,8192,51264,630,7440,56
23.01.2020 07:00:0049,00-3,7393,52255,690,6737,57
23.01.2020 06:30:0048,20-3,9093,91282,080,4435,83
23.01.2020 06:00:0046,00-4,0993,71256,820,7333,63
23.01.2020 05:30:0041,96-3,9193,93245,970,7634,30
23.01.2020 05:00:0031,00-3,8095,39253,310,8834,44
23.01.2020 04:30:0032,61-3,8296,19302,740,7436,58
23.01.2020 04:00:0037,00-4,0595,53313,030,5036,65
23.01.2020 03:30:0036,46-4,1794,99347,830,2536,08
23.01.2020 03:00:0035,00-4,0495,37202,440,2935,57
23.01.2020 02:30:0035,27-3,8596,10234,420,4936,54
23.01.2020 02:00:0036,00-3,8196,21274,420,6437,68
23.01.2020 01:30:0037,60-3,7896,04150,950,3137,66
23.01.2020 01:00:0042,00-3,6895,93166,740,5536,40
23.01.2020 00:30:0041,73-3,5695,70180,250,4936,19
23.01.2020 00:00:0041,00-3,3795,40178,240,7036,63
22.01.2020 23:30:0040,74-3,1395,38196,520,4737,07
22.01.2020 23:00:0040,00-3,1495,48266,320,7735,68
22.01.2020 22:30:0040,54-3,2195,69294,060,4835,73
22.01.2020 22:00:0042,00-3,1995,60109,920,0835,80
22.01.2020 21:30:0047,12-3,1095,36134,800,2034,46
22.01.2020 21:00:0061,00-3,0795,04155,430,4133,10
22.01.2020 20:30:0054,83-2,8794,16160,260,7633,02
22.01.2020 20:00:0038,00-2,5493,27180,820,7233,54
22.01.2020 19:30:0043,08-2,3892,18234,280,6832,76
22.01.2020 19:00:0057,00-2,4591,62187,790,7434,83
22.01.2020 18:30:0053,77-2,5490,61153,910,7436,93